Danville, IN

5:42 PM EDT on September 21, 2017 (GMT -0400)
Vermilion County

Weather History for KDNV - October, 2012

Change the Weather History Date:

Wednesday, October 3, 2012

  Actual Average (KLAF) Record (KLAF)
Temperature  
Mean Temperature 63 °F -  
Max Temperature 70 °F 71 °F 89 °F (1983)
Min Temperature 55 °F 47 °F 29 °F (1981)
Degree Days  
Heating Degree Days 2    
Growing Degree Days 13 (Base 50)    
Moisture  
Dew Point 54 °F    
Average Humidity 82    
Maximum Humidity 97    
Minimum Humidity 49    
Precipitation  
Precipitation 0.02 in - - ()
Sea Level Pressure  
Sea Level Pressure 29.95 in    
Wind  
Wind Speed 7 mph (South)    
Max Wind Speed 16 mph    
Max Gust Speed 20 mph    
Visibility 5 miles    
Events Rain    
Averages and records for this station are not official NWS values.
T = Trace of Precipitation, MM = Missing Value Source: NWS Daily Summary

Daily Weather History Graph

Daily Weather History Graph

Search for Another Location

Airport or City:

Trip Planner

Search our weather history database for the weather conditions in past years. The results will help you decide how hot, cold, wet, or windy it might be!

Date:

Astronomy

Oct. 03, 2012 Rise Set
Actual Time 6:49 AM CDT 6:28 PM CDT
Civil Twilight 6:22 AM CDT 6:55 PM CDT
Nautical Twilight 5:50 AM CDT 7:27 PM CDT
Astronomical Twilight 5:18 AM CDT 7:58 PM CDT
Moon 8:20 PM CDT (10/3) 10:12 AM CDT (10/3)
Length of Visible Light 12h 33m
Length of Day
11h 39m
Waning Gibbous, 88% of the Moon is Illuminated
Oct 3
Waning Gibbous
Oct 8
Last Quarter
Oct 15
New
Oct 21
First Quarter
Oct 29
Full

Hourly Weather History & Observations

Time (CDT) Temp. Dew Point Humidity Pressure Visibility Wind Dir Wind Speed Gust Speed Precip Events Conditions
12:15 AM 58.1 °F 56.7 °F 95% 29.85 in 4.0 mi SSE 4.6 mph - N/A   Overcast
12:35 AM 57.7 °F 56.5 °F 96% 29.84 in 3.0 mi SSE 6.9 mph - N/A   Overcast
12:55 AM 57.6 °F 56.3 °F 96% 29.84 in 3.0 mi SSE 6.9 mph - N/A   Overcast
1:15 AM 57.4 °F 55.9 °F 95% 29.85 in 5.0 mi SSE 5.8 mph - N/A   Overcast
1:35 AM 57.4 °F 55.8 °F 94% 29.85 in 5.0 mi SSE 4.6 mph - N/A   Overcast
1:55 AM 57.2 °F 55.8 °F 95% 29.86 in 4.0 mi SE 5.8 mph - N/A   Overcast
2:15 AM 57.2 °F 55.8 °F 95% 29.86 in 1.8 mi SSE 6.9 mph - N/A Rain Light Rain
2:35 AM 57.2 °F 55.8 °F 95% 29.86 in 2.5 mi SSE 5.8 mph - N/A Rain Light Rain
2:55 AM 56.8 °F 55.6 °F 96% 29.86 in 2.5 mi SSE 5.8 mph - N/A Rain Light Rain
3:15 AM 56.5 °F 55.4 °F 96% 29.87 in 2.5 mi SSE 8.1 mph - N/A Rain Rain
3:35 AM 56.3 °F 55.0 °F 96% 29.87 in 3.0 mi SSE 8.1 mph - 0.01 in Rain Light Rain
3:55 AM 56.3 °F 55.0 °F 96% 29.87 in 5.0 mi SSE 5.8 mph - 0.01 in   Overcast
4:15 AM 56.3 °F 55.0 °F 96% 29.88 in 3.0 mi South 8.1 mph - N/A   Overcast
4:35 AM 56.3 °F 55.0 °F 96% 29.88 in 3.0 mi South 6.9 mph - N/A Rain Rain
4:55 AM 56.3 °F 55.0 °F 96% 29.89 in 4.0 mi South 8.1 mph - N/A Rain Light Rain
5:15 AM 56.3 °F 55.2 °F 96% 29.89 in 3.0 mi South 6.9 mph - N/A   Overcast
5:35 AM 57.2 °F 55.4 °F 94% 29.90 in 2.5 mi South 9.2 mph - N/A   Overcast
5:55 AM 56.3 °F 55.4 °F 97% 29.90 in 2.5 mi South 8.1 mph - N/A Rain Light Rain
6:15 AM 56.5 °F 55.4 °F 96% 29.91 in 2.5 mi South 8.1 mph - N/A Rain Rain
6:35 AM 57.2 °F 55.4 °F 94% 29.91 in 4.0 mi South 10.4 mph - N/A Rain Rain
6:55 AM 56.5 °F 55.4 °F 96% 29.92 in 4.0 mi South 9.2 mph - N/A Rain Light Rain
7:15 AM 56.5 °F 55.4 °F 96% 29.92 in 2.5 mi South 8.1 mph - N/A Rain Light Rain
7:35 AM 56.7 °F 55.4 °F 96% 29.93 in 2.5 mi South 9.2 mph - N/A Rain Light Rain
7:55 AM 56.8 °F 55.8 °F 96% 29.93 in 2.5 mi South 8.1 mph - N/A Rain Light Rain
8:15 AM 57.2 °F 55.8 °F 95% 29.93 in 4.0 mi South 8.1 mph - N/A   Overcast
8:35 AM 57.2 °F 55.9 °F 96% 29.94 in 3.0 mi SSW 11.5 mph - N/A   Overcast
8:55 AM 57.2 °F 55.8 °F 95% 29.94 in 1.5 mi SSW 11.5 mph - N/A Rain Light Rain
9:15 AM 57.2 °F 55.8 °F 95% 29.95 in 1.5 mi SSW 10.4 mph - N/A Rain Light Rain
9:35 AM 56.8 °F 55.6 °F 96% 29.96 in 1.2 mi SSW 9.2 mph - N/A Rain Light Rain
9:55 AM 57.2 °F 56.3 °F 97% 29.96 in 1.0 mi SW 10.4 mph - N/A Rain Light Rain
10:15 AM 57.0 °F 55.8 °F 96% 29.97 in 1.8 mi WSW 10.4 mph - 0.01 in Rain Light Rain
10:35 AM 57.2 °F 55.8 °F 95% 29.97 in 1.5 mi WSW 9.2 mph - 0.01 in Rain Rain
10:55 AM 57.2 °F 55.9 °F 96% 29.98 in 1.5 mi SW 9.2 mph - 0.01 in Rain Light Rain
11:15 AM 57.2 °F 55.4 °F 94% 29.98 in 1.8 mi SSW 8.1 mph - N/A   Overcast
11:35 AM 57.9 °F 56.3 °F 94% 29.98 in 3.0 mi SW 10.4 mph - N/A   Overcast
11:55 AM 59.9 °F 57.6 °F 92% 29.98 in 4.0 mi SW 10.4 mph - N/A   Mostly Cloudy
12:15 PM 62.8 °F 58.8 °F 87% 29.98 in 5.0 mi SW 12.7 mph 19.6 mph N/A   Scattered Clouds
12:35 PM 64.4 °F 57.2 °F 77% 29.97 in 7.0 mi SW 11.5 mph 17.3 mph N/A   Scattered Clouds
12:55 PM 64.6 °F 57.2 °F 77% 29.97 in 7.0 mi SSW 10.4 mph - N/A   Scattered Clouds
1:15 PM 65.8 °F 56.5 °F 72% 29.96 in 10.0 mi SW 10.4 mph - N/A   Scattered Clouds
1:35 PM 65.5 °F 55.9 °F 71% 29.96 in 10.0 mi SW 12.7 mph - N/A   Scattered Clouds
1:55 PM 66.4 °F 54.5 °F 66% 29.95 in 7.0 mi SW 12.7 mph - N/A   Clear
2:15 PM 68.0 °F 53.6 °F 60% 29.95 in 7.0 mi SW 12.7 mph - N/A   Clear
2:35 PM 69.1 °F 50.7 °F 52% 29.95 in 5.0 mi SW 16.1 mph 19.6 mph N/A   Haze
2:55 PM 70.0 °F 49.8 °F 49% 29.95 in 7.0 mi WSW 12.7 mph 19.6 mph N/A   Scattered Clouds
3:15 PM 69.1 °F 50.0 °F 51% 29.95 in 7.0 mi SW 9.2 mph - N/A   Scattered Clouds
3:35 PM 69.1 °F 50.4 °F 51% 29.96 in 7.0 mi SW 10.4 mph - N/A   Mostly Cloudy
3:55 PM 68.9 °F 51.3 °F 53% 29.96 in 7.0 mi SW 9.2 mph - N/A   Mostly Cloudy
4:15 PM 69.1 °F 52.0 °F 54% 29.96 in 7.0 mi SSW 5.8 mph - N/A   Mostly Cloudy
4:35 PM 68.9 °F 52.5 °F 56% 29.97 in 7.0 mi SSW 5.8 mph - N/A   Mostly Cloudy
4:55 PM 68.4 °F 52.2 °F 56% 29.97 in 7.0 mi SW 3.5 mph - N/A   Mostly Cloudy
5:15 PM 68.2 °F 52.9 °F 58% 29.97 in 5.0 mi Calm Calm - N/A   Haze
5:35 PM 68.0 °F 53.6 °F 60% 29.98 in 7.0 mi Calm Calm - N/A   Overcast
5:55 PM 67.1 °F 53.6 °F 62% 29.98 in 7.0 mi SSE 3.5 mph - N/A   Overcast
6:15 PM 66.0 °F 53.8 °F 65% 29.98 in 5.0 mi SE 3.5 mph - N/A   Haze
6:35 PM 64.9 °F 53.6 °F 67% 29.98 in 7.0 mi ESE 3.5 mph - N/A   Mostly Cloudy
6:55 PM 62.6 °F 53.6 °F 72% 29.99 in 7.0 mi ESE 3.5 mph - N/A   Mostly Cloudy
7:15 PM 63.0 °F 53.8 °F 72% 29.99 in 7.0 mi SE 3.5 mph - N/A   Overcast
7:35 PM 62.6 °F 53.6 °F 72% 30.00 in 7.0 mi Calm Calm - N/A   Mostly Cloudy
7:55 PM 62.1 °F 53.2 °F 73% 30.00 in 7.0 mi Calm Calm - N/A   Mostly Cloudy
8:15 PM 60.8 °F 53.6 °F 77% 30.01 in 7.0 mi Calm Calm - N/A   Scattered Clouds
8:35 PM 59.9 °F 52.7 °F 77% 30.01 in 7.0 mi Calm Calm - N/A   Scattered Clouds
8:55 PM 58.6 °F 52.5 °F 80% 30.02 in 5.0 mi Calm Calm - N/A   Haze
9:15 PM 57.2 °F 51.8 °F 82% 30.02 in 10.0 mi Calm Calm - N/A   Clear
9:55 PM 57.0 °F 51.1 °F 81% 30.03 in 7.0 mi Calm Calm - N/A   Scattered Clouds
10:15 PM 57.2 °F 51.1 °F 80% 30.03 in 7.0 mi South 3.5 mph - N/A   Scattered Clouds
10:35 PM 57.2 °F 50.0 °F 77% 30.03 in 7.0 mi South 6.9 mph - N/A   Scattered Clouds
10:55 PM 56.8 °F 50.7 °F 80% 30.04 in 10.0 mi SSW 4.6 mph - N/A   Clear
11:15 PM 57.2 °F 50.9 °F 79% 30.04 in 10.0 mi South 4.6 mph - N/A   Clear
11:35 PM 56.3 °F 50.9 °F 82% 30.04 in 10.0 mi SSW 4.6 mph - N/A   Clear
11:55 PM 55.0 °F 50.9 °F 86% 30.04 in 7.0 mi SSW 6.9 mph - N/A   Clear